Location: Unspecified
(33.6682°S, 0.0000°E)
Time: 21:12:24
(UTC+00:00)

SR - All Passes

Search period start: 18 June 2019 00:00
Search period end: 28 June 2019 00:00
Orbit: 582 x 874 km, 66.7° (Epoch: 17 June)

Date Brightness Start Highest point End Pass type
(mag) Time Alt. Az. Time Alt. Az. Time Alt. Az.
18 Jun - 01:01:47 10° S 01:06:08 26° SE 01:10:10 10° ENE night (unlit)
18 Jun - 02:43:43 10° SW 02:48:12 31° WNW 02:52:20 10° N night (unlit)
18 Jun - 15:25:59 10° N 15:31:27 43° ENE 15:37:01 10° SE daylight
18 Jun - 17:08:45 10° WNW 17:13:42 27° SW 17:18:40 10° S daylight
19 Jun - 00:13:33 10° SSE 00:16:02 13° SE 00:18:25 10° ESE night (unlit)
19 Jun - 01:53:38 10° SSW 01:58:48 74° WNW 02:03:28 10° NNE night (unlit)
19 Jun - 14:37:51 10° NNE 14:42:07 21° ENE 14:46:26 10° ESE daylight
19 Jun - 16:18:07 10° NW 16:23:48 51° WSW 16:29:35 10° SSE daylight
20 Jun - 01:04:05 10° SSW 01:09:09 50° ESE 01:13:44 10° NE night (unlit)
20 Jun - 02:47:54 10° WSW 02:50:35 15° WNW 02:53:08 10° NW night (unlit)
20 Jun - 15:28:16 10° NNW 15:34:08 82° ENE 15:40:05 10° SSE daylight
20 Jun - 17:13:27 10° W 17:16:55 16° SW 17:20:23 10° SSW daylight
21 Jun - 00:15:02 10° S 00:19:15 24° SE 00:23:10 10° ENE night (unlit)
21 Jun - 01:56:49 10° SW 02:01:22 33° WNW 02:05:32 10° N night (unlit)
21 Jun - 14:39:12 10° N 14:44:38 40° ENE 14:50:08 10° SE daylight
21 Jun - 16:21:48 10° WNW 16:26:50 29° SW 16:31:54 10° S daylight
21 Jun - 23:26:59 10° SSE 23:29:06 12° SE 23:31:11 10° ESE night (unlit)
22 Jun - 01:06:47 10° SSW 01:11:57 79° WNW 01:16:36 10° NNE night (unlit)
22 Jun - 13:51:13 10° NNE 13:55:19 20° ENE 13:59:26 10° ESE daylight
22 Jun - 15:31:13 10° NW 15:36:58 54° WSW 15:42:46 10° SSE daylight
23 Jun - 00:17:17 10° SSW 00:22:16 46° ESE 00:26:48 10° NE night (unlit)
23 Jun - 02:00:52 10° WSW 02:03:46 16° WNW 02:06:31 10° NW night (unlit)
23 Jun - 14:41:26 10° NNW 14:47:18 78° ENE 14:53:14 10° SSE daylight
23 Jun - 16:26:23 10° W 16:30:01 17° SW 16:33:40 10° S daylight
23 Jun - 23:28:18 10° S 23:32:22 23° SE 23:36:08 10° ENE night (unlit)
24 Jun - 01:09:56 10° SW 01:14:32 36° WNW 01:18:45 10° N night (unlit)
24 Jun - 13:52:28 10° N 13:57:49 38° ENE 14:03:15 10° SE daylight
24 Jun - 15:34:50 10° WNW 15:39:58 30° SW 15:45:07 10° S daylight
24 Jun - 22:40:29 10° SSE 22:42:12 11° SE 22:43:52 10° ESE night (unlit)
25 Jun - 00:19:57 10° SSW 00:25:06 85° WNW 00:29:44 10° NNE night (unlit)
25 Jun - 13:04:35 10° NNE 13:08:30 19° ENE 13:12:27 10° ESE daylight
25 Jun - 14:44:20 10° NW 14:50:07 58° WSW 14:55:57 10° SSE daylight
25 Jun - 23:30:30 10° SSW 23:35:24 43° ESE 23:39:52 10° NE night (unlit)
26 Jun - 01:13:51 10° WSW 01:16:56 17° WNW 01:19:52 10° NW night (unlit)
26 Jun - 13:54:37 10° NNW 14:00:28 73° ENE 14:06:23 10° SSE daylight
26 Jun - 15:39:19 10° W 15:43:08 17° SW 15:46:58 10° S daylight
26 Jun - 22:41:34 10° S 22:45:27 21° SE 22:49:05 10° ENE night (unlit)
27 Jun - 00:23:02 10° SW 00:27:41 38° WNW 00:31:57 10° N night (unlit)
27 Jun - 13:05:43 10° N 13:11:00 36° ENE 13:16:21 10° SE daylight
27 Jun - 14:47:53 10° WNW 14:53:06 32° WSW 14:58:19 10° S daylight
27 Jun - 21:54:07 10° SSE 21:55:17 11° SE 21:56:24 10° ESE night (unlit)
27 Jun - 23:33:07 10° SSW 23:38:14 90° ESE 23:42:51 10° NNE night (unlit)
